Home   Weather   Cahul   Past weeks

Flag for Moldova Past Weather in Cahul, Moldova — Yesterday and Last 2 Weeks

Now
33 °F

Scattered clouds.


Feels Like: 33 °F
Forecast: 20 / 38 °F
Wind: 1 mph from Northeast

Location: Galati

Current Time: Dec 7, 2016 at 4:49:53 pm

Latest Report: Dec 7, 2016 at 4:00 pm


Visibility: 6 mi

Pressure: 30.71 "Hg

Humidity: 70%

Dew Point: 24 °F

Location of CahulLocation

Past Weather in Cahul — Graph

°F

Cahul Temperature Yesterday

Maximum temperature yesterday: 44 °F (at 3:00 pm)
Minimum temperature yesterday: 27 °F (at 7:00 am)
Average temperature yesterday: 34 °F

High & Low Weather Summary for the Past Weeks

 TemperatureHumidityPressure
High45 °F (Dec 3, 1:00 pm)100% (Nov 24, 5:00 am)30.69 "Hg (Nov 24, 5:00 am)
Low23 °F (Nov 30, 8:00 am)34% (Dec 4, 3:00 pm)29.41 "Hg (Dec 2, 2:00 pm)
Average35 °F82%30.20 "Hg
* Reported Nov 22 3:00 pm — Dec 7 3:00 pm, Cahul, Weather by CustomWeather, © 2016

Note: Actual official high and low records may vary slightly from our data, if they occured in-between our weather recording intervals... More about our weather records

Advertising

Cahul Weather History for the Previous 24 Hours

Scroll right to see more
 ConditionsComfort  
Time TempWeatherWind HumidityBarometerVisibility
3:00 pm
Wed, Dec 7
33 °FScattered clouds.2 mph72%30.69 "Hg12 mi
2:00 pm33 °FPassing clouds.3 mph75%30.68 "Hg12 mi
1:00 pm38 °FScattered clouds.5 mph47%30.65 "Hg12 mi
12:00 pm36 °FScattered clouds.5 mph62%30.63 "Hg6 mi
11:00 am36 °FScattered clouds.3 mph68%30.61 "Hg6 mi
10:00 am34 °FPartly sunny.2 mph82%30.58 "Hg6 mi
9:00 am32 °FPartly sunny.2 mph79%30.54 "Hg6 mi
8:00 am31 °FPassing clouds.2 mph80%30.50 "Hg6 mi
7:00 am33 °FPassing clouds.2 mph74%30.48 "Hg6 mi
6:00 am34 °FPassing clouds.3 mph70%30.45 "Hg6 mi
5:00 am33 °FOvercast.1 mph77%30.43 "Hg6 mi
4:00 am34 °FOvercast.2 mph73%30.40 "Hg6 mi
3:00 am35 °FOvercast.5 mph74%30.39 "Hg6 mi
2:00 am35 °FOvercast.3 mph78%30.36 "Hg6 mi
1:00 am35 °FOvercast.3 mph75%30.34 "Hg6 mi
12:00 am35 °FOvercast.5 mph70%30.32 "Hg6 mi
11:00 pm
Tue, Dec 6
36 °FOvercast.5 mph65%30.30 "Hg6 mi
10:00 pm34 °FPassing clouds.3 mph74%30.28 "Hg6 mi
9:00 pm34 °FClear.2 mph72%30.27 "Hg6 mi
7:00 pm35 °FPassing clouds.1 mph69%30.21 "Hg6 mi
6:00 pm38 °FPassing clouds.2 mph63%30.19 "Hg12 mi
5:00 pm40 °FPassing clouds.2 mph56%30.18 "Hg6 mi
4:00 pm43 °FPassing clouds.1 mph51%30.17 "Hg6 mi
Weather by CustomWeather, © 2016

See weather overviewHow to use our weather pages